| time (UTC) | temp F | wind direction | speed knots | gust knots | rain 1hr in | rain 24hr in | rain mn in | humidity % | barometer mb |
| 20260902072753 | 55 | 262 | 0.0 | 0.0 | 0.00 | 0.00 | 0.00 | 90 | 1011.0 |
| 20260902072254 | 55 | 262 | 0.0 | 0.0 | 0.00 | 0.00 | 0.00 | 90 | 1011.1 |
| 20260902071741 | 55 | 262 | 0.0 | 0.0 | 0.00 | 0.00 | 0.00 | 90 | 1011.1 |
| 20260902071238 | 55 | 263 | 0.0 | 0.0 | 0.00 | 0.00 | 0.00 | 90 | 1011.2 |
| 20260902070738 | 55 | 263 | 0.0 | 0.0 | 0.00 | 0.00 | 0.00 | 89 | 1011.2 |
| 20260902070234 | 56 | 263 | 0.0 | 0.0 | 0.00 | 0.00 | 0.00 | 88 | 1011.2 |
| 20260902065732 | 57 | 262 | 0.0 | 0.0 | 0.00 | 0.00 | 0.00 | 87 | 1011.2 |
| 20260902065225 | 57 | 262 | 0.0 | 0.0 | 0.00 | 0.00 | 0.00 | 87 | 1011.2 |
| 20260902064717 | 57 | 263 | 0.0 | 0.0 | 0.00 | 0.00 | 0.00 | 87 | 1011.2 |
| 20260902064211 | 57 | 263 | 0.0 | 0.0 | 0.00 | 0.00 | 0.00 | 86 | 1011.2 |
| 20260902063702 | 58 | 262 | 0.0 | 0.0 | 0.00 | 0.00 | 0.00 | 86 | 1011.2 |
| 20260902063154 | 58 | 262 | 0.0 | 0.0 | 0.00 | 0.00 | 0.00 | 85 | 1011.3 |
| 20260902062655 | 59 | 263 | 0.0 | 0.0 | 0.00 | 0.00 | 0.00 | 84 | 1011.4 |
| 20260902062407 | 59 | 263 | 0.0 | 0.0 | 0.00 | 0.00 | 0.00 | 84 | 1011.4 |
| 20260902061633 | 59 | 263 | 0.0 | 0.0 | 0.00 | 0.00 | 0.00 | 84 | 1011.5 |
| 20260902061533 | 60 | 263 | 0.0 | 0.0 | 0.00 | 0.00 | 0.00 | 83 | 1011.5 |
| 20260902061156 | 59 | 263 | 0.0 | 0.0 | 0.00 | 0.00 | 0.00 | 83 | 1011.5 |
| 20260902060104 | 60 | 263 | 0.0 | 0.0 | 0.00 | 0.00 | 0.00 | 82 | 1011.7 |
| 20260902055549 | 60 | 262 | 0.0 | 0.0 | 0.00 | 0.00 | 0.00 | 82 | 1011.7 |
| 20260902055050 | 61 | 263 | 0.0 | 0.0 | 0.00 | 0.00 | 0.00 | 82 | 1011.7 |
| 20260902054545 | 61 | 262 | 0.0 | 0.0 | 0.00 | 0.00 | 0.00 | 81 | 1011.8 |
| 20260902054041 | 61 | 262 | 0.0 | 0.9 | 0.00 | 0.00 | 0.00 | 81 | 1011.9 |
| 20260902053540 | 61 | 262 | 0.0 | 0.9 | 0.00 | 0.00 | 0.00 | 81 | 1011.9 |
| 20260902053311 | 61 | 262 | 0.0 | 1.7 | 0.00 | 0.00 | 0.00 | 80 | 1012.0 |
| 20260902052532 | 61 | 263 | 0.9 | 2.6 | 0.00 | 0.00 | 0.00 | 80 | 1012.0 |
| 20260902052257 | 61 | 263 | 2.6 | 4.3 | 0.00 | 0.00 | 0.00 | 80 | 1012.0 |
| 20260902051518 | 61 | 291 | 2.6 | 6.1 | 0.00 | 0.00 | 0.00 | 80 | 1012.0 |
| 20260902051020 | 61 | 291 | 2.6 | 6.1 | 0.00 | 0.00 | 0.00 | 81 | 1012.1 |
| 20260902050519 | 61 | 267 | 2.6 | 4.3 | 0.00 | 0.00 | 0.00 | 81 | 1012.1 |
| 20260902050018 | 61 | 254 | 1.7 | 4.3 | 0.00 | 0.00 | 0.00 | 81 | 1012.1 |
| 20260902045517 | 61 | 253 | 0.9 | 3.5 | 0.00 | 0.00 | 0.00 | 81 | 1012.1 |
| 20260902045015 | 61 | 239 | 0.9 | 2.6 | 0.00 | 0.00 | 0.00 | 81 | 1012.0 |
| 20260902044505 | 61 | 239 | 0.0 | 2.6 | 0.00 | 0.00 | 0.00 | 81 | 1012.1 |
| 20260902044008 | 60 | 239 | 0.0 | 0.9 | 0.00 | 0.00 | 0.00 | 81 | 1012.1 |
| 20260902043458 | 60 | 239 | 0.9 | 1.7 | 0.00 | 0.00 | 0.00 | 81 | 1012.1 |
| 20260902042952 | 61 | 239 | 0.9 | 1.7 | 0.00 | 0.00 | 0.00 | 81 | 1012.1 |
| 20260902042919 | 60 | 239 | 0.0 | 1.7 | 0.00 | 0.00 | 0.00 | 81 | 1012.0 |
| 20260902041942 | 60 | 239 | 1.7 | 3.5 | 0.00 | 0.00 | 0.00 | 81 | 1011.9 |
| 20260902041437 | 60 | 239 | 2.6 | 3.5 | 0.00 | 0.00 | 0.00 | 81 | 1011.9 |
| 20260902040933 | 60 | 239 | 1.7 | 3.5 | 0.00 | 0.00 | 0.00 | 81 | 1011.8 |
| 20260902040433 | 61 | 281 | 0.9 | 2.6 | 0.00 | 0.00 | 0.00 | 80 | 1011.8 |
| 20260902035929 | 61 | 281 | 0.0 | 1.7 | 0.00 | 0.00 | 0.00 | 80 | 1011.6 |
| 20260902035426 | 61 | 281 | 0.0 | 0.9 | 0.00 | 0.00 | 0.00 | 79 | 1011.5 |
| 20260902034913 | 61 | 281 | 0.0 | 0.9 | 0.00 | 0.00 | 0.00 | 79 | 1011.5 |
| 20260902034413 | 61 | 281 | 0.0 | 1.7 | 0.00 | 0.00 | 0.00 | 79 | 1011.4 |
| 20260902033904 | 62 | 281 | 0.0 | 1.7 | 0.00 | 0.00 | 0.00 | 78 | 1011.4 |
| 20260902033341 | 62 | 281 | 0.0 | 1.7 | 0.00 | 0.00 | 0.00 | 78 | 1011.4 |
| 20260902033327 | 62 | 281 | 0.9 | 1.7 | 0.00 | 0.00 | 0.00 | 78 | 1011.4 |
| 20260902032339 | 62 | 281 | 0.9 | 2.6 | 0.00 | 0.00 | 0.00 | 78 | 1011.4 |
| 20260902031834 | 62 | 281 | 0.9 | 2.6 | 0.00 | 0.00 | 0.00 | 78 | 1011.4 |
| 20260902031822 | 62 | 281 | 1.7 | 2.6 | 0.00 | 0.00 | 0.00 | 77 | 1011.3 |
| 20260902030827 | 62 | 281 | 1.7 | 3.5 | 0.00 | 0.00 | 0.00 | 77 | 1011.4 |
| 20260902030321 | 63 | 281 | 1.7 | 3.5 | 0.00 | 0.00 | 0.00 | 76 | 1011.3 |
| 20260902025819 | 63 | 281 | 1.7 | 3.5 | 0.00 | 0.00 | 0.00 | 76 | 1011.3 |
| 20260902025322 | 63 | 311 | 1.7 | 4.3 | 0.00 | 0.00 | 0.00 | 75 | 1011.4 |
| 20260902024810 | 64 | 286 | 2.6 | 5.2 | 0.00 | 0.00 | 0.00 | 75 | 1011.4 |
| 20260902024309 | 64 | 275 | 2.6 | 5.2 | 0.00 | 0.00 | 0.00 | 75 | 1011.4 |
| 20260902023808 | 64 | 291 | 2.6 | 7.0 | 0.00 | 0.00 | 0.00 | 74 | 1011.5 |
| 20260902023308 | 64 | 299 | 1.7 | 7.0 | 0.00 | 0.00 | 0.00 | 74 | 1011.5 |
| 20260902022807 | 64 | 281 | 2.6 | 4.3 | 0.00 | 0.00 | 0.00 | 73 | 1011.5 |
| 20260902022306 | 64 | 281 | 2.6 | 6.1 | 0.00 | 0.00 | 0.00 | 73 | 1011.5 |
| 20260902021810 | 64 | 260 | 1.7 | 6.1 | 0.00 | 0.00 | 0.00 | 73 | 1011.4 |
| 20260902021523 | 65 | 281 | 1.7 | 7.0 | 0.00 | 0.00 | 0.00 | 73 | 1011.4 |
| 20260902020801 | 65 | 291 | 2.6 | 7.0 | 0.00 | 0.00 | 0.00 | 72 | 1011.4 |
| 20260902020302 | 65 | 315 | 2.6 | 7.0 | 0.00 | 0.00 | 0.00 | 73 | 1011.4 |
| 20260902015803 | 65 | 341 | 3.5 | 7.0 | 0.00 | 0.00 | 0.00 | 72 | 1011.4 |
| 20260902015258 | 65 | 301 | 2.6 | 7.0 | 0.00 | 0.00 | 0.00 | 71 | 1011.4 |
| 20260902014759 | 65 | 297 | 2.6 | 5.2 | 0.00 | 0.00 | 0.00 | 71 | 1011.3 |
| 20260902014258 | 65 | 297 | 2.6 | 4.3 | 0.00 | 0.00 | 0.00 | 71 | 1011.4 |
| 20260902014021 | 65 | 281 | 2.6 | 6.1 | 0.00 | 0.00 | 0.00 | 72 | 1011.3 |
| 20260902013522 | 65 | 291 | 2.6 | 7.0 | 0.00 | 0.00 | 0.00 | 71 | 1011.4 |
| 20260902013018 | 65 | 298 | 3.5 | 7.8 | 0.00 | 0.00 | 0.00 | 71 | 1011.3 |
| 20260902012253 | 65 | 343 | 3.5 | 7.8 | 0.00 | 0.00 | 0.00 | 71 | 1011.4 |
| 20260902011753 | 65 | 328 | 3.5 | 7.0 | 0.00 | 0.00 | 0.00 | 72 | 1011.4 |
| 20260902011252 | 65 | 316 | 3.5 | 7.8 | 0.00 | 0.00 | 0.00 | 71 | 1011.3 |
| 20260902010743 | 65 | 256 | 4.3 | 8.7 | 0.00 | 0.00 | 0.00 | 71 | 1011.3 |
| 20260902010506 | 66 | 262 | 5.2 | 8.7 | 0.00 | 0.00 | 0.00 | 71 | 1011.3 |
| 20260902005744 | 66 | 263 | 5.2 | 8.7 | 0.00 | 0.00 | 0.00 | 70 | 1011.2 |
| 20260902005243 | 66 | 297 | 4.3 | 8.7 | 0.00 | 0.00 | 0.00 | 70 | 1011.1 |
| 20260902004742 | 66 | 286 | 4.3 | 9.6 | 0.00 | 0.00 | 0.00 | 69 | 1011.2 |
| 20260902004239 | 66 | 322 | 5.2 | 9.6 | 0.00 | 0.00 | 0.00 | 69 | 1011.2 |
| 20260902003739 | 67 | 291 | 5.2 | 11.3 | 0.00 | 0.00 | 0.00 | 69 | 1011.2 |
| 20260902003458 | 67 | 249 | 5.2 | 11.3 | 0.00 | 0.00 | 0.00 | 68 | 1011.2 |
| 20260902002733 | 67 | 257 | 5.2 | 8.7 | 0.00 | 0.00 | 0.00 | 67 | 1011.2 |
| 20260902002229 | 67 | 277 | 5.2 | 11.3 | 0.00 | 0.00 | 0.00 | 67 | 1011.1 |
| 20260902001727 | 67 | 272 | 5.2 | 11.3 | 0.00 | 0.00 | 0.00 | 67 | 1011.1 |
| 20260902001228 | 67 | 324 | 4.3 | 10.4 | 0.00 | 0.00 | 0.00 | 67 | 1011.0 |
| 20260902000727 | 67 | 241 | 4.3 | 10.4 | 0.00 | 0.00 | 0.00 | 67 | 1011.0 |
| 20260902000226 | 67 | 222 | 4.3 | 10.4 | 0.00 | 0.00 | 0.00 | 68 | 1011.0 |
| 20260901235943 | 67 | 235 | 5.2 | 10.4 | 0.00 | 0.00 | 0.00 | 68 | 1010.9 |
| 20260901235216 | 67 | 291 | 5.2 | 10.4 | 0.00 | 0.00 | 0.00 | 68 | 1011.0 |
| 20260901234714 | 67 | 261 | 5.2 | 7.8 | 0.00 | 0.00 | 0.00 | 66 | 1011.0 |
| 20260901234211 | 67 | 297 | 4.3 | 8.7 | 0.00 | 0.00 | 0.00 | 66 | 1010.9 |
| 20260901233711 | 67 | 270 | 4.3 | 8.7 | 0.00 | 0.00 | 0.00 | 66 | 1011.1 |
| 20260901233429 | 68 | 257 | 5.2 | 10.4 | 0.00 | 0.00 | 0.00 | 66 | 1011.0 |
| 20260901232710 | 67 | 286 | 6.1 | 10.4 | 0.00 | 0.00 | 0.00 | 67 | 1011.1 |
| 20260901232209 | 67 | 243 | 6.1 | 10.4 | 0.00 | 0.00 | 0.00 | 66 | 1011.0 |
| 20260901231928 | 67 | 332 | 6.1 | 10.4 | 0.00 | 0.00 | 0.00 | 68 | 1011.0 |
| 20260901231439 | 67 | 240 | 7.0 | 13.0 | 0.00 | 0.00 | 0.00 | 67 | 1011.1 |
| 20260901230707 | 67 | 281 | 7.0 | 13.0 | 0.00 | 0.00 | 0.00 | 67 | 1011.2 |
| 20260901230205 | 67 | 241 | 7.0 | 13.0 | 0.00 | 0.00 | 0.00 | 68 | 1011.1 |
| 20260901225707 | 67 | 245 | 7.0 | 13.0 | 0.00 | 0.00 | 0.00 | 68 | 1011.2 |
| 20260901225209 | 67 | 252 | 5.2 | 10.4 | 0.00 | 0.00 | 0.00 | 67 | 1011.2 |
| 20260901224704 | 67 | 243 | 5.2 | 10.4 | 0.00 | 0.00 | 0.00 | 67 | 1011.1 |
| 20260901224203 | 68 | 244 | 5.2 | 9.6 | 0.00 | 0.00 | 0.00 | 67 | 1011.1 |
| 20260901223703 | 68 | 264 | 4.3 | 9.6 | 0.00 | 0.00 | 0.00 | 66 | 1011.2 |
| 20260901223206 | 68 | 318 | 3.5 | 6.1 | 0.00 | 0.00 | 0.00 | 67 | 1011.3 |
| 20260901222705 | 67 | 281 | 3.5 | 5.2 | 0.00 | 0.00 | 0.00 | 67 | 1011.2 |
| 20260901222202 | 67 | 286 | 4.3 | 10.4 | 0.00 | 0.00 | 0.00 | 68 | 1011.1 |
| 20260901221705 | 66 | 291 | 6.1 | 12.2 | 0.00 | 0.00 | 0.00 | 68 | 1011.2 |
| 20260901221203 | 67 | 263 | 7.0 | 13.0 | 0.00 | 0.00 | 0.00 | 68 | 1011.2 |
| 20260901220701 | 67 | 247 | 6.1 | 11.3 | 0.00 | 0.00 | 0.00 | 65 | 1011.1 |
| 20260901220422 | 67 | 249 | 6.1 | 10.4 | 0.00 | 0.00 | 0.00 | 65 | 1011.1 |
| 20260901215657 | 67 | 286 | 5.2 | 10.4 | 0.00 | 0.00 | 0.00 | 65 | 1011.1 |
| 20260901215156 | 67 | 223 | 6.1 | 10.4 | 0.00 | 0.00 | 0.00 | 64 | 1011.0 |
| 20260901214655 | 68 | 226 | 4.3 | 10.4 | 0.00 | 0.00 | 0.00 | 64 | 1010.9 |
| 20260901214154 | 68 | 201 | 4.3 | 9.6 | 0.00 | 0.00 | 0.00 | 64 | 1011.0 |
| 20260901213654 | 67 | 211 | 5.2 | 10.4 | 0.00 | 0.00 | 0.00 | 65 | 1010.9 |
| 20260901213153 | 67 | 205 | 6.1 | 12.2 | 0.00 | 0.00 | 0.00 | 65 | 1011.0 |
| 20260901212653 | 67 | 204 | 5.2 | 12.2 | 0.00 | 0.00 | 0.00 | 64 | 1010.9 |
| 20260901212156 | 67 | 182 | 4.3 | 8.7 | 0.00 | 0.00 | 0.00 | 65 | 1011.0 |
| 20260901211655 | 66 | 193 | 5.2 | 8.7 | 0.00 | 0.00 | 0.00 | 65 | 1011.0 |
| 20260901211638 | 67 | 214 | 4.3 | 8.7 | 0.00 | 0.00 | 0.00 | 65 | 1011.1 |
| 20260901210909 | 66 | 234 | 4.3 | 9.6 | 0.00 | 0.00 | 0.00 | 65 | 1011.0 |
| 20260901210414 | 67 | 199 | 4.3 | 9.6 | 0.00 | 0.00 | 0.00 | 66 | 1011.0 |
| 20260901205648 | 67 | 243 | 3.5 | 7.8 | 0.00 | 0.00 | 0.00 | 65 | 1011.0 |
| 20260901205147 | 67 | 235 | 4.3 | 9.6 | 0.00 | 0.00 | 0.00 | 64 | 1011.0 |
| 20260901204645 | 67 | 212 | 3.5 | 9.6 | 0.00 | 0.00 | 0.00 | 65 | 1011.0 |
| 20260901204134 | 67 | 235 | 3.5 | 8.7 | 0.00 | 0.00 | 0.00 | 66 | 1011.1 |
| 20260901203850 | 67 | 249 | 4.3 | 8.7 | 0.00 | 0.00 | 0.00 | 66 | 1011.2 |
| 20260901203108 | 67 | 261 | 5.2 | 10.4 | 0.00 | 0.00 | 0.00 | 66 | 1011.2 |
| 20260901202601 | 66 | 281 | 5.2 | 10.4 | 0.00 | 0.00 | 0.00 | 65 | 1011.1 |
| 20260901202102 | 66 | 256 | 5.2 | 11.3 | 0.00 | 0.00 | 0.00 | 65 | 1011.2 |
| 20260901201604 | 67 | 257 | 6.1 | 11.3 | 0.00 | 0.00 | 0.00 | 65 | 1011.2 |
| 20260901201058 | 67 | 228 | 6.1 | 10.4 | 0.00 | 0.00 | 0.00 | 64 | 1011.3 |
| 20260901201048 | 67 | 216 | 6.1 | 10.4 | 0.00 | 0.00 | 0.00 | 63 | 1011.3 |
| 20260901200056 | 67 | 256 | 5.2 | 9.6 | 0.00 | 0.00 | 0.00 | 64 | 1011.3 |
| 20260901195554 | 66 | 231 | 6.1 | 10.4 | 0.00 | 0.00 | 0.00 | 64 | 1011.4 |
| 20260901195054 | 67 | 232 | 7.0 | 10.4 | 0.00 | 0.00 | 0.00 | 63 | 1011.3 |
| 20260901194552 | 67 | 185 | 6.1 | 11.3 | 0.00 | 0.00 | 0.00 | 62 | 1011.4 |
| 20260901194052 | 67 | 253 | 7.0 | 11.3 | 0.00 | 0.00 | 0.00 | 63 | 1011.5 |
| 20260901193551 | 67 | 204 | 7.0 | 11.3 | 0.00 | 0.00 | 0.00 | 62 | 1011.5 |
| 20260901193052 | 67 | 199 | 6.1 | 11.3 | 0.00 | 0.00 | 0.00 | 62 | 1011.5 |
| 20260901192551 | 67 | 203 | 6.1 | 13.0 | 0.00 | 0.00 | 0.00 | 64 | 1011.5 |
| 20260901192308 | 67 | 199 | 6.1 | 13.0 | 0.00 | 0.00 | 0.00 | 62 | 1011.4 |
| 20260901191810 | 66 | 181 | 6.1 | 10.4 | 0.00 | 0.00 | 0.00 | 62 | 1011.5 |
| 20260901191304 | 67 | 195 | 5.2 | 10.4 | 0.00 | 0.00 | 0.00 | 62 | 1011.5 |
| 20260901190547 | 67 | 188 | 6.1 | 10.4 | 0.00 | 0.00 | 0.00 | 63 | 1011.5 |
| 20260901190046 | 67 | 209 | 7.0 | 10.4 | 0.00 | 0.00 | 0.00 | 63 | 1011.5 |
| 20260901185544 | 66 | 179 | 5.2 | 10.4 | 0.00 | 0.00 | 0.00 | 65 | 1011.6 |
| 20260901185306 | 67 | 188 | 2.6 | 8.7 | 0.00 | 0.00 | 0.00 | 67 | 1011.7 |
| 20260901184543 | 66 | 171 | 3.5 | 8.7 | 0.00 | 0.00 | 0.00 | 69 | 1011.7 |
| 20260901184044 | 65 | 253 | 4.3 | 8.7 | 0.00 | 0.00 | 0.00 | 69 | 1011.7 |
| 20260901183544 | 64 | 183 | 4.3 | 7.8 | 0.00 | 0.00 | 0.00 | 70 | 1011.8 |
| 20260901183304 | 65 | 191 | 4.3 | 8.7 | 0.00 | 0.00 | 0.00 | 69 | 1011.8 |
| 20260901182542 | 65 | 250 | 6.1 | 10.4 | 0.00 | 0.00 | 0.00 | 71 | 1011.9 |
| 20260901182040 | 65 | 245 | 6.1 | 10.4 | 0.00 | 0.00 | 0.00 | 71 | 1011.7 |
| 20260901181540 | 65 | 274 | 5.2 | 8.7 | 0.00 | 0.00 | 0.00 | 71 | 1011.8 |
| 20260901181037 | 65 | 251 | 5.2 | 8.7 | 0.00 | 0.00 | 0.00 | 74 | 1011.8 |
| 20260901180537 | 65 | 226 | 4.3 | 8.7 | 0.00 | 0.00 | 0.00 | 74 | 1011.8 |
| 20260901180036 | 65 | 205 | 4.3 | 9.6 | 0.00 | 0.00 | 0.00 | 73 | 1011.8 |
| 20260901175537 | 65 | 224 | 5.2 | 11.3 | 0.00 | 0.00 | 0.00 | 73 | 1011.8 |
| 20260901175035 | 64 | 174 | 5.2 | 11.3 | 0.00 | 0.00 | 0.00 | 74 | 1011.9 |
| 20260901174536 | 64 | 210 | 5.2 | 9.6 | 0.00 | 0.00 | 0.00 | 76 | 1011.8 |
| 20260901174033 | 64 | 216 | 5.2 | 9.6 | 0.00 | 0.00 | 0.00 | 75 | 1011.8 |
| 20260901173533 | 63 | 209 | 4.3 | 9.6 | 0.00 | 0.00 | 0.00 | 76 | 1011.8 |
| 20260901173035 | 64 | 218 | 4.3 | 9.6 | 0.00 | 0.00 | 0.00 | 75 | 1011.8 |
| 20260901172532 | 64 | 200 | 4.3 | 9.6 | 0.00 | 0.00 | 0.00 | 76 | 1011.8 |
| 20260901172031 | 62 | 189 | 6.1 | 9.6 | 0.00 | 0.00 | 0.00 | 77 | 1011.8 |
| 20260901171531 | 62 | 220 | 6.1 | 9.6 | 0.00 | 0.00 | 0.00 | 78 | 1011.8 |
| 20260901171030 | 62 | 193 | 7.0 | 10.4 | 0.00 | 0.00 | 0.00 | 79 | 1011.9 |
| 20260901170530 | 62 | 214 | 7.0 | 13.0 | 0.00 | 0.00 | 0.00 | 80 | 1011.9 |
| 20260901170031 | 62 | 205 | 6.1 | 13.0 | 0.00 | 0.00 | 0.00 | 80 | 1011.8 |
| 20260901165530 | 62 | 196 | 5.2 | 8.7 | 0.00 | 0.00 | 0.00 | 80 | 1011.8 |
| 20260901165030 | 62 | 145 | 4.3 | 8.7 | 0.00 | 0.00 | 0.00 | 80 | 1011.8 |
| 20260901164530 | 62 | 196 | 4.3 | 8.7 | 0.00 | 0.00 | 0.00 | 80 | 1011.7 |
| 20260901164301 | 62 | 206 | 3.5 | 7.0 | 0.00 | 0.00 | 0.00 | 80 | 1011.7 |
| 20260901163530 | 62 | 192 | 3.5 | 7.8 | 0.00 | 0.00 | 0.00 | 80 | 1011.7 |
| 20260901163031 | 62 | 201 | 4.3 | 8.7 | 0.00 | 0.00 | 0.00 | 81 | 1011.7 |
| 20260901162530 | 62 | 189 | 3.5 | 8.7 | 0.00 | 0.00 | 0.00 | 82 | 1011.8 |
| 20260901162031 | 61 | 189 | 3.5 | 7.0 | 0.00 | 0.00 | 0.00 | 82 | 1011.8 |
| 20260901161530 | 61 | 203 | 3.5 | 7.0 | 0.00 | 0.00 | 0.00 | 82 | 1011.9 |
| 20260901161030 | 61 | 183 | 4.3 | 8.7 | 0.00 | 0.00 | 0.00 | 82 | 1011.9 |
| 20260901160530 | 61 | 153 | 4.3 | 8.7 | 0.00 | 0.00 | 0.00 | 82 | 1011.9 |
| 20260901160030 | 61 | 182 | 4.3 | 7.8 | 0.00 | 0.00 | 0.00 | 82 | 1011.9 |
| 20260901155756 | 60 | 141 | 3.5 | 7.8 | 0.00 | 0.00 | 0.00 | 82 | 1012.0 |
| 20260901155030 | 60 | 185 | 3.5 | 7.0 | 0.00 | 0.00 | 0.00 | 82 | 1012.0 |
| 20260901154531 | 60 | 178 | 4.3 | 7.0 | 0.00 | 0.00 | 0.00 | 82 | 1011.9 |
| 20260901154031 | 60 | 179 | 4.3 | 7.0 | 0.00 | 0.00 | 0.00 | 82 | 1011.9 |
| 20260901153530 | 60 | 180 | 3.5 | 7.0 | 0.00 | 0.00 | 0.00 | 83 | 1012.0 |
| 20260901153025 | 60 | 145 | 2.6 | 6.1 | 0.00 | 0.00 | 0.00 | 83 | 1011.9 |
| 20260901152523 | 60 | 170 | 1.7 | 5.2 | 0.00 | 0.00 | 0.00 | 83 | 1011.9 |
| 20260901152022 | 60 | 191 | 1.7 | 2.6 | 0.00 | 0.00 | 0.00 | 84 | 1011.8 |
| 20260901151738 | 60 | 174 | 1.7 | 3.5 | 0.00 | 0.00 | 0.00 | 84 | 1011.9 |
| 20260901151019 | 60 | 216 | 1.7 | 5.2 | 0.00 | 0.00 | 0.00 | 84 | 1011.8 |
| 20260901150733 | 60 | 186 | 2.6 | 5.2 | 0.00 | 0.00 | 0.00 | 85 | 1011.8 |
| 20260901150009 | 60 | 215 | 2.6 | 4.3 | 0.00 | 0.00 | 0.00 | 85 | 1011.8 |
| 20260901145510 | 59 | 254 | 2.6 | 5.2 | 0.00 | 0.00 | 0.00 | 85 | 1011.7 |
| 20260901145008 | 59 | 201 | 2.6 | 5.2 | 0.00 | 0.00 | 0.00 | 85 | 1011.7 |
| 20260901144504 | 59 | 232 | 2.6 | 3.5 | 0.00 | 0.00 | 0.00 | 85 | 1011.6 |
| 20260901144005 | 59 | 221 | 1.7 | 3.5 | 0.00 | 0.00 | 0.00 | 85 | 1011.7 |
| 20260901143947 | 59 | 222 | 2.6 | 3.5 | 0.00 | 0.00 | 0.00 | 86 | 1011.6 |
| 20260901142958 | 59 | 252 | 2.6 | 5.2 | 0.00 | 0.00 | 0.00 | 86 | 1011.5 |
| 20260901142458 | 59 | 237 | 2.6 | 5.2 | 0.00 | 0.00 | 0.00 | 85 | 1011.4 |
| 20260901141959 | 59 | 239 | 1.7 | 5.2 | 0.00 | 0.00 | 0.00 | 85 | 1011.5 |
| 20260901141455 | 59 | 171 | 2.6 | 6.1 | 0.00 | 0.00 | 0.00 | 85 | 1011.5 |
| 20260901140955 | 59 | 253 | 2.6 | 6.1 | 0.00 | 0.00 | 0.00 | 86 | 1011.4 |
| 20260901140452 | 59 | 189 | 2.6 | 6.1 | 0.00 | 0.00 | 0.00 | 85 | 1011.4 |
| 20260901135953 | 59 | 216 | 2.6 | 5.2 | 0.00 | 0.00 | 0.00 | 85 | 1011.5 |
| 20260901135456 | 59 | 179 | 1.7 | 5.2 | 0.00 | 0.00 | 0.00 | 85 | 1011.4 |
| 20260901134951 | 59 | 195 | 0.9 | 3.5 | 0.00 | 0.00 | 0.00 | 85 | 1011.4 |
| 20260901134453 | 59 | 239 | 0.0 | 1.7 | 0.00 | 0.00 | 0.00 | 86 | 1011.4 |
| 20260901134444 | 59 | 240 | 0.0 | 0.0 | 0.00 | 0.00 | 0.00 | 86 | 1011.3 |
| 20260901133448 | 59 | 239 | 0.0 | 0.0 | 0.00 | 0.00 | 0.00 | 86 | 1011.3 |
| 20260901132951 | 59 | 239 | 0.0 | 1.7 | 0.00 | 0.00 | 0.00 | 86 | 1011.3 |
| 20260901132441 | 59 | 239 | 0.9 | 1.7 | 0.00 | 0.00 | 0.00 | 86 | 1011.3 |
| 20260901132205 | 59 | 239 | 0.9 | 1.7 | 0.00 | 0.00 | 0.00 | 85 | 1011.2 |
| 20260901131440 | 59 | 239 | 1.7 | 3.5 | 0.00 | 0.00 | 0.00 | 86 | 1011.2 |
| 20260901130939 | 59 | 239 | 1.7 | 3.5 | 0.00 | 0.00 | 0.00 | 84 | 1011.3 |
| 20260901130438 | 59 | 219 | 1.7 | 4.3 | 0.00 | 0.00 | 0.00 | 84 | 1011.3 |
| 20260901125939 | 59 | 219 | 2.6 | 4.3 | 0.00 | 0.00 | 0.00 | 84 | 1011.3 |
| 20260901125436 | 59 | 247 | 2.6 | 4.3 | 0.00 | 0.00 | 0.00 | 83 | 1011.2 |
| 20260901125156 | 59 | 253 | 1.7 | 3.5 | 0.00 | 0.00 | 0.00 | 83 | 1011.2 |
| 20260901124432 | 59 | 253 | 0.9 | 3.5 | 0.00 | 0.00 | 0.00 | 83 | 1011.3 |
| 20260901123933 | 59 | 233 | 0.0 | 1.7 | 0.00 | 0.00 | 0.00 | 83 | 1011.1 |
| 20260901123430 | 60 | 233 | 0.0 | 1.7 | 0.00 | 0.00 | 0.00 | 83 | 1011.1 |
| 20260901122927 | 60 | 233 | 0.9 | 1.7 | 0.00 | 0.00 | 0.00 | 83 | 1011.1 |
| 20260901122414 | 60 | 233 | 0.9 | 3.5 | 0.00 | 0.00 | 0.00 | 82 | 1011.1 |
| 20260901121916 | 60 | 233 | 0.9 | 3.5 | 0.00 | 0.00 | 0.00 | 83 | 1011.1 |
| 20260901121412 | 59 | 204 | 0.9 | 2.6 | 0.00 | 0.00 | 0.00 | 82 | 1011.2 |
| 20260901120912 | 60 | 204 | 0.9 | 2.6 | 0.00 | 0.00 | 0.00 | 82 | 1011.1 |
| 20260901120413 | 60 | 204 | 0.9 | 2.6 | 0.00 | 0.00 | 0.00 | 82 | 1011.1 |
| 20260901115904 | 60 | 204 | 0.9 | 2.6 | 0.00 | 0.00 | 0.00 | 82 | 1011.2 |
| 20260901115630 | 60 | 204 | 0.9 | 2.6 | 0.00 | 0.00 | 0.00 | 83 | 1011.1 |
| 20260901114858 | 60 | 204 | 0.9 | 2.6 | 0.00 | 0.00 | 0.00 | 82 | 1011.1 |
| 20260901114350 | 60 | 204 | 1.7 | 5.2 | 0.00 | 0.00 | 0.00 | 82 | 1011.2 |
| 20260901113849 | 60 | 185 | 1.7 | 5.2 | 0.00 | 0.00 | 0.00 | 82 | 1011.1 |
| 20260901113613 | 59 | 194 | 1.7 | 3.5 | 0.00 | 0.00 | 0.00 | 82 | 1011.1 |
| 20260901113108 | 59 | 203 | 1.7 | 3.5 | 0.00 | 0.00 | 0.00 | 83 | 1011.1 |
| 20260901112347 | 59 | 216 | 1.7 | 5.2 | 0.00 | 0.00 | 0.00 | 84 | 1011.1 |
| 20260901111846 | 59 | 232 | 1.7 | 7.0 | 0.00 | 0.00 | 0.00 | 85 | 1011.1 |
| 20260901111347 | 59 | 245 | 1.7 | 7.0 | 0.00 | 0.00 | 0.00 | 86 | 1011.0 |
| 20260901111121 | 59 | 234 | 3.5 | 6.1 | 0.00 | 0.00 | 0.00 | 84 | 1011.0 |
| 20260901110343 | 60 | 215 | 4.3 | 7.8 | 0.00 | 0.00 | 0.00 | 84 | 1011.0 |
| 20260901105843 | 60 | 195 | 3.5 | 7.8 | 0.00 | 0.00 | 0.00 | 83 | 1011.0 |
| 20260901105343 | 60 | 199 | 2.6 | 6.1 | 0.00 | 0.00 | 0.00 | 80 | 1011.0 |
| 20260901104844 | 60 | 166 | 1.7 | 5.2 | 0.00 | 0.00 | 0.00 | 80 | 1011.0 |
| 20260901104339 | 60 | 216 | 1.7 | 3.5 | 0.00 | 0.00 | 0.00 | 80 | 1011.1 |
| 20260901103838 | 60 | 216 | 1.7 | 3.5 | 0.00 | 0.00 | 0.00 | 80 | 1011.0 |
| 20260901103330 | 60 | 203 | 1.7 | 3.5 | 0.00 | 0.00 | 0.00 | 80 | 1011.0 |
| 20260901102829 | 60 | 251 | 1.7 | 3.5 | 0.00 | 0.00 | 0.00 | 80 | 1011.1 |
| 20260901102330 | 60 | 221 | 0.9 | 3.5 | 0.00 | 0.00 | 0.00 | 80 | 1011.0 |
| 20260901102053 | 60 | 201 | 0.9 | 2.6 | 0.00 | 0.00 | 0.00 | 80 | 1011.0 |
| 20260901100818 | 60 | 201 | 1.7 | 6.1 | 0.00 | 0.00 | 0.00 | 80 | 1011.1 |
| 20260901100318 | 60 | 207 | 1.7 | 6.1 | 0.00 | 0.00 | 0.00 | 80 | 1011.0 |
| 20260901095819 | 60 | 205 | 1.7 | 4.3 | 0.00 | 0.00 | 0.00 | 80 | 1011.0 |
| 20260901095306 | 60 | 187 | 1.7 | 5.2 | 0.00 | 0.00 | 0.00 | 80 | 1011.0 |
| 20260901094757 | 60 | 216 | 1.7 | 5.2 | 0.00 | 0.00 | 0.00 | 80 | 1010.9 |
| 20260901094520 | 60 | 207 | 1.7 | 5.2 | 0.00 | 0.00 | 0.00 | 80 | 1011.0 |
| 20260901093752 | 60 | 177 | 2.6 | 5.2 | 0.00 | 0.00 | 0.00 | 80 | 1011.0 |
| 20260901093248 | 60 | 183 | 2.6 | 5.2 | 0.00 | 0.00 | 0.00 | 80 | 1011.0 |
| 20260901092742 | 60 | 172 | 2.6 | 4.3 | 0.00 | 0.00 | 0.00 | 80 | 1011.0 |
| 20260901092238 | 60 | 177 | 2.6 | 4.3 | 0.00 | 0.00 | 0.00 | 80 | 1011.1 |
| 20260901091732 | 60 | 181 | 2.6 | 4.3 | 0.00 | 0.00 | 0.00 | 79 | 1011.1 |
| 20260901091230 | 60 | 189 | 2.6 | 4.3 | 0.00 | 0.00 | 0.00 | 80 | 1011.1 |
| 20260901090726 | 60 | 187 | 2.6 | 4.3 | 0.00 | 0.00 | 0.00 | 80 | 1011.1 |
| 20260901090439 | 60 | 179 | 2.6 | 3.5 | 0.00 | 0.00 | 0.00 | 80 | 1011.2 |
| 20260901085723 | 60 | 131 | 1.7 | 3.5 | 0.00 | 0.00 | 0.00 | 80 | 1011.2 |
| 20260901085220 | 60 | 197 | 1.7 | 3.5 | 0.00 | 0.00 | 0.00 | 80 | 1011.2 |
| 20260901084721 | 60 | 210 | 2.6 | 7.0 | 0.00 | 0.00 | 0.00 | 80 | 1011.2 |
| 20260901084207 | 60 | 188 | 2.6 | 7.0 | 0.00 | 0.00 | 0.00 | 80 | 1011.2 |
| 20260901083708 | 60 | 211 | 2.6 | 6.1 | 0.00 | 0.00 | 0.00 | 80 | 1011.1 |
| 20260901083207 | 60 | 177 | 2.6 | 5.2 | 0.00 | 0.00 | 0.00 | 80 | 1011.1 |
| 20260901082711 | 60 | 168 | 2.6 | 6.1 | 0.00 | 0.00 | 0.00 | 80 | 1011.2 |
| 20260901082205 | 60 | 190 | 3.5 | 6.1 | 0.00 | 0.00 | 0.00 | 80 | 1011.1 |
| 20260901081706 | 60 | 187 | 2.6 | 6.1 | 0.00 | 0.00 | 0.00 | 80 | 1011.1 |
| 20260901081204 | 60 | 183 | 1.7 | 5.2 | 0.00 | 0.00 | 0.00 | 80 | 1011.1 |
| 20260901080704 | 60 | 193 | 1.7 | 5.2 | 0.00 | 0.00 | 0.00 | 80 | 1011.0 |
| 20260901080205 | 60 | 179 | 1.7 | 3.5 | 0.00 | 0.00 | 0.00 | 80 | 1011.0 |
| 20260901075654 | 60 | 211 | 1.7 | 5.2 | 0.00 | 0.00 | 0.00 | 81 | 1011.0 |
| 20260901075150 | 59 | 197 | 2.6 | 5.2 | 0.00 | 0.00 | 0.00 | 80 | 1010.9 |
| 20260901074647 | 59 | 188 | 2.6 | 4.3 | 0.00 | 0.00 | 0.00 | 80 | 1010.9 |
| 20260901074410 | 59 | 165 | 2.6 | 4.3 | 0.00 | 0.00 | 0.00 | 81 | 1010.8 |
| 20260901073638 | 59 | 172 | 2.6 | 4.3 | 0.00 | 0.00 | 0.00 | 80 | 1010.8 |
| 20260901073347 | 59 | 151 | 2.6 | 4.3 | 0.00 | 0.00 | 0.00 | 81 | 1010.8 |